Simultaneous Nadir Overpasses (SNOs) Predictions

Prediction of SNOs near equator between AQUA and NPP Satellite Orbit:

Table of predicted SNOs near equator for the next 14.0 days since TLE Epoch: 9/30/2016
Index Date (AQUA) Time (AQUA) AQUA Lat,Lon Date (NPP) Time (NPP) NPP Lat,Lon Distance(km) Time Diff (sec)
1 10/01/2016 15:36:31 -8.32, 148.44 10/01/2016 15:26:53 -8.32, 148.44 0.87 578
2 10/01/2016 16:23:51 0.42, -42.25 10/01/2016 16:15:27 0.36, -42.48 27.03 504
3 10/01/2016 17:11:59 4.07, 126.36 10/01/2016 17:04:50 4.20, 125.86 57.04 429
4 10/01/2016 18:00:12 -8.71, -65.02 10/01/2016 17:54:19 -8.86, -65.79 86.21 353
5 10/04/2016 07:51:39 -3.45, -94.64 10/04/2016 07:42:25 -3.43, -94.70 7.74 554
6 10/04/2016 08:39:53 -1.19, 73.97 10/04/2016 08:31:55 -1.24, 73.63 37.96 478
7 10/04/2016 09:28:01 5.68,-117.42 10/04/2016 09:21:18 5.79,-118.02 67.65 403
8 10/04/2016 10:16:16 -10.26, 51.19 10/04/2016 10:10:48 -10.46, 50.33 96.44 328
9 10/06/2016 23:22:23 16.55,-149.27 10/06/2016 23:12:24 16.56,-149.28 0.97 599
10 10/07/2016 00:07:43 -1.92, 21.56 10/06/2016 23:58:55 -1.90, 21.40 18.74 528
11 10/07/2016 00:55:58 -2.66,-169.84 10/07/2016 00:48:25 -2.78,-170.26 48.88 453
12 10/07/2016 01:44:05 7.21, -1.21 10/07/2016 01:37:48 7.33, -1.91 78.37 377
13 10/09/2016 15:35:52 5.68, -31.01 10/09/2016 15:26:15 5.68, -31.02 0.65 577
14 10/09/2016 16:23:46 -0.35, 137.78 10/09/2016 16:15:24 -0.30, 137.51 29.78 502
15 10/09/2016 17:12:01 -4.24, -53.63 10/09/2016 17:04:54 -4.37, -54.15 59.78
